| time (UTC) | temp C | wind direction | speed KPH | gust KPH | rain 1hr cm | rain 24hr cm | rain mn cm | humidity % | barometer mb |
| 20260506201005 | 12 | 255 | 8.0 | 16.1 | 0.00 | 0.84 | 0.18 | 37 | 1012.8 |
| 20260506200005 | 13 | 275 | 8.0 | 20.9 | 0.00 | 0.86 | 0.18 | 39 | 1012.9 |
| 20260506195005 | 12 | 254 | 1.6 | 11.3 | 0.00 | 0.89 | 0.18 | 36 | 1012.8 |
| 20260506194004 | 12 | 257 | 1.6 | 8.0 | 0.00 | 0.91 | 0.18 | 40 | 1012.8 |
| 20260506193005 | 12 | 259 | 1.6 | 11.3 | 0.00 | 0.94 | 0.18 | 39 | 1012.9 |
| 20260506185005 | 13 | 272 | 0.0 | 0.0 | 0.00 | 1.04 | 0.18 | 38 | 1013.1 |
| 20260506184005 | 13 | 331 | 1.6 | 16.1 | 0.00 | 1.04 | 0.18 | 38 | 1013.0 |
| 20260506183006 | 13 | 268 | 3.2 | 14.5 | 0.00 | 1.07 | 0.18 | 38 | 1012.8 |
| 20260506182004 | 13 | 0 | 3.2 | 16.1 | 0.00 | 1.09 | 0.18 | 41 | 1013.0 |
| 20260506181005 | 13 | 301 | 3.2 | 11.3 | 0.00 | 1.09 | 0.18 | 38 | 1012.7 |
| 20260506180006 | 13 | 258 | 6.4 | 14.5 | 0.00 | 1.12 | 0.18 | 37 | 1012.7 |
| 20260506175005 | 13 | 255 | 9.7 | 11.3 | 0.00 | 1.12 | 0.18 | 40 | 1012.7 |
| 20260506174005 | 13 | 272 | 6.4 | 11.3 | 0.00 | 1.12 | 0.18 | 41 | 1012.7 |
| 20260506173004 | 13 | 247 | 8.0 | 16.1 | 0.00 | 1.12 | 0.18 | 40 | 1012.8 |
| 20260506172005 | 13 | 273 | 3.2 | 11.3 | 0.00 | 1.12 | 0.18 | 43 | 1012.7 |
| 20260506171005 | 13 | 263 | 3.2 | 16.1 | 0.00 | 1.12 | 0.18 | 45 | 1013.0 |
| 20260506170005 | 13 | 259 | 3.2 | 16.1 | 0.00 | 1.12 | 0.18 | 44 | 1012.9 |
| 20260506165005 | 13 | 250 | 0.0 | 0.0 | 0.00 | 1.12 | 0.18 | 41 | 1013.2 |
| 20260506164004 | 13 | 328 | 0.0 | 0.0 | 0.00 | 1.12 | 0.18 | 47 | 1013.1 |
| 20260506163004 | 13 | 24 | 0.0 | 0.0 | 0.00 | 1.12 | 0.18 | 45 | 1013.2 |
| 20260506162005 | 13 | 248 | 0.0 | 0.0 | 0.00 | 1.12 | 0.18 | 46 | 1013.0 |
| 20260506161005 | 12 | 246 | 0.0 | 0.0 | 0.00 | 1.12 | 0.18 | 46 | 1013.2 |
| 20260506160005 | 12 | 314 | 0.0 | 0.0 | 0.00 | 1.12 | 0.18 | 46 | 1013.0 |
| 20260506155005 | 12 | 334 | 0.0 | 0.0 | 0.00 | 1.12 | 0.18 | 48 | 1013.2 |
| 20260506154004 | 12 | 0 | 0.0 | 0.0 | 0.00 | 1.12 | 0.18 | 49 | 1012.9 |
| 20260506153004 | 12 | 23 | 0.0 | 0.0 | 0.00 | 1.12 | 0.18 | 45 | 1013.0 |
| 20260506152005 | 12 | 345 | 0.0 | 0.0 | 0.00 | 1.12 | 0.18 | 51 | 1012.6 |
| 20260506151004 | 11 | 357 | 0.0 | 0.0 | 0.00 | 1.12 | 0.18 | 50 | 1013.0 |
| 20260506150005 | 11 | 10 | 0.0 | 0.0 | 0.00 | 1.12 | 0.18 | 50 | 1012.6 |
| 20260506145006 | 11 | 7 | 0.0 | 0.0 | 0.00 | 1.12 | 0.18 | 53 | 1012.5 |
| 20260506144005 | 11 | 348 | 0.0 | 0.0 | 0.00 | 1.12 | 0.18 | 56 | 1012.6 |
| 20260506143005 | 11 | 1 | 0.0 | 0.0 | 0.00 | 1.12 | 0.18 | 53 | 1012.2 |
| 20260506142004 | 11 | 358 | 0.0 | 0.0 | 0.00 | 1.12 | 0.18 | 57 | 1012.2 |
| 20260506141004 | 11 | 18 | 0.0 | 0.0 | 0.00 | 1.12 | 0.18 | 58 | 1011.9 |
| 20260506140004 | 11 | 359 | 0.0 | 0.0 | 0.00 | 1.12 | 0.18 | 56 | 1011.9 |
| 20260506135005 | 10 | 18 | 0.0 | 8.0 | 0.00 | 1.12 | 0.18 | 62 | 1012.3 |
| 20260506134004 | 10 | 49 | 0.0 | 0.0 | 0.00 | 1.12 | 0.18 | 66 | 1012.2 |
| 20260506133004 | 10 | 347 | 1.6 | 16.1 | 0.00 | 1.12 | 0.18 | 67 | 1011.9 |
| 20260506131004 | 8 | 44 | 0.0 | 0.0 | 0.00 | 1.12 | 0.18 | 84 | 1011.7 |
| 20260506130005 | 8 | 34 | 0.0 | 11.3 | 0.00 | 1.12 | 0.18 | 91 | 1011.5 |
| 20260506125004 | 7 | 62 | 0.0 | 8.0 | 0.00 | 1.12 | 0.18 | 93 | 1011.5 |
| 20260506123004 | 7 | 252 | 0.0 | 0.0 | 0.00 | 1.12 | 0.18 | 94 | 1011.3 |
| 20260506122004 | 7 | 236 | 0.0 | 0.0 | 0.00 | 1.12 | 0.18 | 94 | 1011.2 |
| 20260506121005 | 7 | 236 | 0.0 | 0.0 | 0.00 | 1.12 | 0.18 | 94 | 1011.1 |
| 20260506120004 | 7 | 238 | 0.0 | 0.0 | 0.00 | 1.12 | 0.18 | 94 | 1010.8 |
| 20260506115004 | 7 | 246 | 0.0 | 0.0 | 0.00 | 1.12 | 0.18 | 94 | 1010.6 |
| 20260506114004 | 7 | 233 | 0.0 | 0.0 | 0.00 | 1.12 | 0.18 | 94 | 1010.6 |
| 20260506112004 | 6 | 233 | 0.0 | 0.0 | 0.00 | 1.12 | 0.18 | 94 | 1010.5 |
| 20260506111004 | 7 | 233 | 0.0 | 0.0 | 0.00 | 1.12 | 0.18 | 93 | 1010.3 |
| 20260506110004 | 7 | 233 | 0.0 | 8.0 | 0.00 | 1.12 | 0.18 | 94 | 1010.1 |
| 20260506105004 | 7 | 234 | 1.6 | 9.7 | 0.00 | 1.12 | 0.18 | 93 | 1010.1 |
| 20260506104004 | 6 | 232 | 4.8 | 11.3 | 0.00 | 1.12 | 0.18 | 94 | 1010.1 |
| 20260506103004 | 6 | 233 | 0.0 | 0.0 | 0.00 | 1.12 | 0.18 | 93 | 1009.6 |
| 20260506102004 | 6 | 233 | 0.0 | 0.0 | 0.00 | 1.12 | 0.18 | 93 | 1009.5 |
| 20260506101004 | 6 | 233 | 0.0 | 1.6 | 0.00 | 1.12 | 0.18 | 93 | 1009.3 |
| 20260506100004 | 6 | 233 | 0.0 | 0.0 | 0.00 | 1.12 | 0.18 | 93 | 1009.5 |
| 20260506095004 | 6 | 233 | 0.0 | 0.0 | 0.00 | 1.12 | 0.18 | 93 | 1009.7 |
| 20260506094004 | 6 | 234 | 0.0 | 0.0 | 0.00 | 1.12 | 0.18 | 93 | 1009.3 |
| 20260506093004 | 6 | 238 | 0.0 | 0.0 | 0.00 | 1.12 | 0.18 | 93 | 1009.4 |
| 20260506092003 | 6 | 237 | 0.0 | 0.0 | 0.00 | 1.12 | 0.18 | 93 | 1009.0 |
| 20260506091004 | 6 | 237 | 0.0 | 0.0 | 0.00 | 1.12 | 0.18 | 93 | 1009.1 |
| 20260506090004 | 6 | 239 | 0.0 | 0.0 | 0.00 | 1.12 | 0.18 | 93 | 1009.4 |
| 20260506085004 | 7 | 268 | 1.6 | 8.0 | 0.03 | 1.12 | 0.18 | 93 | 1009.9 |
| 20260506083004 | 6 | 22 | 0.0 | 0.0 | 0.03 | 1.12 | 0.18 | 93 | 1009.3 |
| 20260506082004 | 6 | 20 | 0.0 | 0.0 | 0.03 | 1.12 | 0.18 | 93 | 1009.2 |
| 20260506081004 | 6 | 21 | 0.0 | 0.0 | 0.05 | 1.12 | 0.18 | 93 | 1009.3 |
| 20260506073006 | 6 | 23 | 0.0 | 0.0 | 0.05 | 1.09 | 0.15 | 93 | 1008.9 |
| 20260506072006 | 6 | 27 | 0.0 | 0.0 | 0.08 | 1.09 | 0.15 | 93 | 1009.5 |
| 20260506071006 | 6 | 28 | 0.0 | 0.0 | 0.08 | 1.07 | 0.13 | 92 | 1009.6 |
| 20260506061006 | 6 | 34 | 0.0 | 0.0 | 0.03 | 0.99 | 0.05 | 92 | 1009.9 |
| 20260506051006 | 7 | 11 | 0.0 | 0.0 | 0.03 | 0.97 | 0.03 | 92 | 1009.7 |
| 20260506045006 | 7 | 13 | 0.0 | 0.0 | 0.05 | 0.97 | 0.03 | 92 | 1009.7 |
| 20260506044009 | 7 | 21 | 0.0 | 0.0 | 0.05 | 0.97 | 0.03 | 92 | 1009.5 |
| 20260506043006 | 7 | 26 | 0.0 | 0.0 | 0.03 | 0.94 | 0.00 | 92 | 1009.3 |
| 20260506042006 | 7 | 32 | 0.0 | 0.0 | 0.03 | 0.94 | 0.00 | 92 | 1009.5 |
| 20260506041006 | 7 | 22 | 0.0 | 0.0 | 0.03 | 0.94 | 0.00 | 92 | 1009.4 |
| 20260506040006 | 7 | 17 | 0.0 | 0.0 | 0.05 | 0.94 | 0.00 | 92 | 1009.6 |
| 20260506035005 | 7 | 20 | 0.0 | 0.0 | 0.03 | 0.91 | 0.91 | 93 | 1009.5 |
| 20260506033005 | 7 | 22 | 0.0 | 0.0 | 0.03 | 0.91 | 0.91 | 92 | 1009.4 |
| 20260506032006 | 7 | 27 | 0.0 | 0.0 | 0.03 | 0.91 | 0.91 | 92 | 1009.3 |
| 20260506031006 | 7 | 11 | 0.0 | 0.0 | 0.05 | 0.91 | 0.91 | 92 | 1009.4 |
| 20260506030006 | 7 | 42 | 0.0 | 4.8 | 0.03 | 0.89 | 0.89 | 92 | 1009.4 |
| 20260506025006 | 8 | 286 | 0.0 | 0.0 | 0.05 | 0.89 | 0.89 | 93 | 1009.7 |
| 20260506024006 | 8 | 278 | 0.0 | 0.0 | 0.08 | 0.89 | 0.89 | 93 | 1009.4 |
| 20260506023006 | 9 | 278 | 0.0 | 0.0 | 0.10 | 0.89 | 0.89 | 92 | 1009.4 |
| 20260506022006 | 9 | 278 | 0.0 | 0.0 | 0.10 | 0.89 | 0.89 | 93 | 1009.5 |
| 20260506021006 | 9 | 278 | 0.0 | 0.0 | 0.10 | 0.86 | 0.86 | 92 | 1009.3 |
| 20260506020005 | 9 | 278 | 0.0 | 0.0 | 0.10 | 0.86 | 0.86 | 93 | 1009.4 |
| 20260506015006 | 9 | 278 | 0.0 | 0.0 | 0.10 | 0.84 | 0.84 | 93 | 1009.5 |
| 20260506014006 | 9 | 278 | 0.0 | 0.0 | 0.08 | 0.81 | 0.81 | 93 | 1009.3 |
| 20260506013006 | 9 | 278 | 0.0 | 0.0 | 0.08 | 0.79 | 0.79 | 93 | 1009.2 |
| 20260506012005 | 9 | 278 | 0.0 | 0.0 | 0.08 | 0.79 | 0.79 | 92 | 1009.1 |
| 20260506011006 | 9 | 278 | 0.0 | 0.0 | 0.05 | 0.76 | 0.76 | 92 | 1008.9 |
| 20260506010005 | 9 | 278 | 0.0 | 0.0 | 0.05 | 0.76 | 0.76 | 92 | 1008.9 |
| 20260506005006 | 9 | 278 | 0.0 | 0.0 | 0.05 | 0.74 | 0.74 | 92 | 1008.8 |
| 20260506004005 | 9 | 278 | 0.0 | 0.0 | 0.05 | 0.74 | 0.74 | 92 | 1009.0 |
| 20260506003005 | 9 | 278 | 0.0 | 0.0 | 0.05 | 0.71 | 0.71 | 92 | 1008.6 |
| 20260506001005 | 9 | 278 | 0.0 | 0.0 | 0.10 | 0.71 | 0.71 | 92 | 1008.9 |
| 20260506000007 | 9 | 278 | 0.0 | 0.0 | 0.13 | 0.71 | 0.71 | 92 | 1008.8 |
| 20260505235005 | 9 | 300 | 0.0 | 4.8 | 0.15 | 0.69 | 0.69 | 91 | 1008.9 |
| 20260505234006 | 9 | 302 | 0.0 | 1.6 | 0.15 | 0.69 | 0.69 | 91 | 1008.8 |
| 20260505233007 | 9 | 302 | 0.0 | 4.8 | 0.15 | 0.66 | 0.66 | 90 | 1008.6 |
| 20260505223005 | 9 | 0 | 0.0 | 0.0 | 0.08 | 0.51 | 0.51 | 89 | 1008.5 |
| 20260505222006 | 10 | 0 | 0.0 | 0.0 | 0.10 | 0.51 | 0.51 | 89 | 1008.0 |
| 20260505221005 | 10 | 0 | 0.0 | 0.0 | 0.10 | 0.51 | 0.51 | 89 | 1008.6 |
| 20260505220006 | 10 | 0 | 0.0 | 0.0 | 0.13 | 0.51 | 0.51 | 88 | 1008.3 |
| 20260505215006 | 10 | 0 | 0.0 | 0.0 | 0.13 | 0.48 | 0.48 | 89 | 1008.4 |
| 20260505214006 | 10 | 0 | 0.0 | 0.0 | 0.13 | 0.46 | 0.46 | 88 | 1008.3 |
| 20260505213005 | 10 | 0 | 0.0 | 0.0 | 0.13 | 0.43 | 0.43 | 87 | 1008.4 |
| 20260505212006 | 10 | 0 | 0.0 | 0.0 | 0.10 | 0.41 | 0.41 | 87 | 1008.3 |
| 20260505211005 | 10 | 0 | 0.0 | 0.0 | 0.13 | 0.41 | 0.41 | 87 | 1008.3 |
| 20260505210005 | 10 | 0 | 0.0 | 0.0 | 0.13 | 0.38 | 0.38 | 87 | 1008.4 |
| 20260505205006 | 10 | 0 | 0.0 | 4.8 | 0.13 | 0.36 | 0.36 | 86 | 1008.5 |
| 20260505204006 | 10 | 354 | 0.0 | 4.8 | 0.13 | 0.33 | 0.33 | 85 | 1008.7 |
| 20260505203005 | 10 | 19 | 0.0 | 0.0 | 0.13 | 0.30 | 0.30 | 86 | 1008.6 |
| 20260505202005 | 10 | 0 | 0.0 | 4.8 | 0.18 | 0.30 | 0.30 | 86 | 1008.6 |